Location: Courçay
(47.2523°N, 0.8761°E)
Time: 21:48:31
(UTC+00:00)

Cosmos 1627 Rocket - Pass Details

Date: 18 November 2025
Orbit: 949 x 1003 km, 82.9° (Epoch: 05 December)

Event Time Altitude Azimuth Distance (km) Brightness Sun altitude
Rises 18:46:00 0° 350° (N) 3,635 7.6 -24.9°
Reaches altitude 10° 18:48:30 10° 351° (N) 2,687 6.9 -25.3°
Maximum altitude 18:54:39 90° 277° (W) 963 4.3 -26.4°
Drops below altitude 10° 19:00:50 10° 174° (S) 2,694 6.7 -27.4°
Sets 19:03:20 0° 174° (S) 3,644 7.4 -27.8°
